| time (UTC) | temp F | wind direction | speed MPH | gust MPH | rain 1hr in | rain 24hr in | rain mn in | humidity % | barometer mb |
| 20260509144306 | 52 | 340 | 2.0 | 3.0 | 0.00 | 0.00 | 0.00 | 88 | 1020.6 |
| 20260509143806 | 52 | 325 | 2.0 | 3.0 | 0.00 | 0.00 | 0.00 | 89 | 1020.5 |
| 20260509143306 | 52 | 292 | 1.0 | 3.0 | 0.00 | 0.00 | 0.00 | 89 | 1020.3 |
| 20260509142307 | 51 | 275 | 1.0 | 2.0 | 0.00 | 0.00 | 0.00 | 91 | 1020.3 |
| 20260509141806 | 51 | 275 | 1.0 | 2.0 | 0.00 | 0.00 | 0.00 | 92 | 1020.4 |
| 20260509141306 | 50 | 275 | 0.0 | 0.0 | 0.00 | 0.00 | 0.00 | 92 | 1020.4 |
| 20260509135807 | 49 | 275 | 0.0 | 0.0 | 0.00 | 0.00 | 0.00 | 93 | 1020.3 |
| 20260509135306 | 49 | 275 | 0.0 | 0.0 | 0.00 | 0.00 | 0.00 | 93 | 1020.3 |
| 20260509134806 | 48 | 275 | 0.0 | 0.0 | 0.00 | 0.00 | 0.00 | 93 | 1020.4 |
| 20260509134305 | 48 | 275 | 0.0 | 0.0 | 0.00 | 0.00 | 0.00 | 93 | 1020.3 |
| 20260509133806 | 47 | 275 | 0.0 | 0.0 | 0.00 | 0.00 | 0.00 | 93 | 1020.3 |
| 20260509133305 | 47 | 275 | 0.0 | 0.0 | 0.00 | 0.00 | 0.00 | 93 | 1020.2 |
| 20260509132806 | 47 | 275 | 0.0 | 0.0 | 0.00 | 0.00 | 0.00 | 93 | 1020.1 |
| 20260509132307 | 47 | 275 | 0.0 | 0.0 | 0.00 | 0.00 | 0.00 | 93 | 1020.1 |
| 20260509131306 | 47 | 275 | 0.0 | 0.0 | 0.00 | 0.00 | 0.00 | 93 | 1020.2 |
| 20260509130805 | 47 | 275 | 0.0 | 0.0 | 0.00 | 0.00 | 0.00 | 92 | 1020.2 |
| 20260509125308 | 47 | 275 | 0.0 | 0.0 | 0.00 | 0.00 | 0.00 | 92 | 1020.1 |
| 20260509124806 | 48 | 275 | 0.0 | 0.0 | 0.00 | 0.00 | 0.00 | 92 | 1020.1 |
| 20260509124306 | 48 | 275 | 0.0 | 1.0 | 0.00 | 0.00 | 0.00 | 92 | 1020.1 |
| 20260509123805 | 48 | 275 | 0.0 | 1.0 | 0.00 | 0.00 | 0.00 | 92 | 1020.1 |
| 20260509123306 | 48 | 275 | 0.0 | 1.0 | 0.00 | 0.00 | 0.00 | 92 | 1020.3 |
| 20260509122806 | 48 | 275 | 0.0 | 1.0 | 0.00 | 0.00 | 0.00 | 92 | 1020.4 |
| 20260509122306 | 48 | 275 | 0.0 | 0.0 | 0.00 | 0.00 | 0.00 | 92 | 1020.4 |
| 20260509121806 | 48 | 275 | 0.0 | 0.0 | 0.00 | 0.00 | 0.00 | 92 | 1020.5 |
| 20260509121306 | 48 | 275 | 0.0 | 1.0 | 0.00 | 0.00 | 0.00 | 92 | 1020.4 |
| 20260509115307 | 48 | 275 | 0.0 | 0.0 | 0.00 | 0.00 | 0.00 | 91 | 1020.3 |
| 20260509114806 | 48 | 275 | 0.0 | 0.0 | 0.00 | 0.00 | 0.00 | 91 | 1020.3 |
| 20260509113806 | 49 | 275 | 0.0 | 1.0 | 0.00 | 0.00 | 0.00 | 91 | 1020.4 |
| 20260509113305 | 49 | 275 | 0.0 | 2.0 | 0.00 | 0.00 | 0.00 | 91 | 1020.5 |
| 20260509112307 | 49 | 275 | 1.0 | 1.0 | 0.00 | 0.00 | 0.00 | 90 | 1020.6 |
| 20260509111806 | 49 | 275 | 1.0 | 2.0 | 0.00 | 0.00 | 0.00 | 90 | 1020.5 |
| 20260509111306 | 50 | 275 | 1.0 | 2.0 | 0.00 | 0.00 | 0.00 | 90 | 1020.5 |
| 20260509110306 | 50 | 275 | 0.0 | 0.0 | 0.00 | 0.00 | 0.00 | 90 | 1020.8 |
| 20260509105805 | 50 | 275 | 0.0 | 0.0 | 0.00 | 0.00 | 0.00 | 90 | 1020.8 |
| 20260509105306 | 51 | 275 | 0.0 | 1.0 | 0.00 | 0.00 | 0.00 | 90 | 1020.9 |
| 20260509104806 | 51 | 275 | 0.0 | 1.0 | 0.00 | 0.00 | 0.00 | 89 | 1020.9 |
| 20260509104305 | 51 | 275 | 0.0 | 0.0 | 0.00 | 0.00 | 0.00 | 89 | 1020.8 |
| 20260509103805 | 51 | 275 | 0.0 | 1.0 | 0.00 | 0.00 | 0.00 | 89 | 1020.9 |
| 20260509103305 | 51 | 275 | 0.0 | 1.0 | 0.00 | 0.00 | 0.00 | 89 | 1020.9 |
| 20260509102805 | 51 | 275 | 0.0 | 1.0 | 0.00 | 0.00 | 0.00 | 89 | 1020.9 |
| 20260509102306 | 51 | 275 | 0.0 | 1.0 | 0.00 | 0.00 | 0.00 | 89 | 1020.9 |
| 20260509101806 | 51 | 275 | 0.0 | 2.0 | 0.00 | 0.00 | 0.00 | 89 | 1020.9 |
| 20260509101305 | 51 | 275 | 1.0 | 2.0 | 0.00 | 0.00 | 0.00 | 89 | 1020.9 |
| 20260509100805 | 51 | 275 | 0.0 | 2.0 | 0.00 | 0.00 | 0.00 | 89 | 1020.9 |
| 20260509100305 | 51 | 275 | 0.0 | 1.0 | 0.00 | 0.00 | 0.00 | 88 | 1020.9 |
| 20260509095805 | 51 | 275 | 0.0 | 0.0 | 0.00 | 0.00 | 0.00 | 88 | 1020.9 |
| 20260509095306 | 51 | 275 | 0.0 | 0.0 | 0.00 | 0.00 | 0.00 | 87 | 1021.0 |
| 20260509094805 | 51 | 275 | 0.0 | 0.0 | 0.00 | 0.00 | 0.00 | 87 | 1021.0 |
| 20260509094305 | 52 | 275 | 0.0 | 1.0 | 0.00 | 0.00 | 0.00 | 87 | 1021.0 |
| 20260509093805 | 52 | 275 | 0.0 | 1.0 | 0.00 | 0.00 | 0.00 | 87 | 1021.0 |
| 20260509092805 | 52 | 275 | 0.0 | 2.0 | 0.00 | 0.00 | 0.00 | 87 | 1021.0 |
| 20260509092306 | 52 | 275 | 0.0 | 1.0 | 0.00 | 0.00 | 0.00 | 86 | 1021.0 |
| 20260509091805 | 52 | 275 | 0.0 | 1.0 | 0.00 | 0.00 | 0.00 | 86 | 1021.0 |
| 20260509091306 | 52 | 275 | 0.0 | 1.0 | 0.00 | 0.00 | 0.00 | 86 | 1021.0 |
| 20260509090805 | 53 | 275 | 1.0 | 2.0 | 0.00 | 0.00 | 0.00 | 86 | 1021.1 |
| 20260509090305 | 53 | 275 | 0.0 | 1.0 | 0.00 | 0.00 | 0.00 | 86 | 1021.0 |
| 20260509085805 | 53 | 275 | 0.0 | 1.0 | 0.00 | 0.00 | 0.00 | 85 | 1021.1 |
| 20260509085306 | 53 | 275 | 0.0 | 0.0 | 0.00 | 0.00 | 0.00 | 85 | 1021.1 |
| 20260509084805 | 53 | 275 | 0.0 | 0.0 | 0.00 | 0.00 | 0.00 | 84 | 1021.2 |
| 20260509084305 | 53 | 275 | 0.0 | 1.0 | 0.00 | 0.00 | 0.00 | 84 | 1021.2 |
| 20260509083305 | 54 | 275 | 1.0 | 2.0 | 0.00 | 0.00 | 0.00 | 83 | 1021.3 |
| 20260509082805 | 54 | 275 | 1.0 | 2.0 | 0.00 | 0.00 | 0.00 | 83 | 1021.4 |
| 20260509082307 | 54 | 33 | 0.0 | 0.0 | 0.00 | 0.00 | 0.00 | 82 | 1021.5 |
| 20260509081805 | 54 | 33 | 0.0 | 0.0 | 0.00 | 0.00 | 0.00 | 82 | 1021.5 |
| 20260509081305 | 54 | 33 | 0.0 | 0.0 | 0.00 | 0.00 | 0.00 | 81 | 1021.6 |
| 20260509080805 | 55 | 33 | 0.0 | 0.0 | 0.00 | 0.00 | 0.00 | 81 | 1021.5 |
| 20260509080305 | 55 | 33 | 0.0 | 0.0 | 0.00 | 0.00 | 0.00 | 80 | 1021.6 |
| 20260509075805 | 55 | 33 | 0.0 | 0.0 | 0.00 | 0.00 | 0.00 | 79 | 1021.6 |
| 20260509075306 | 56 | 33 | 0.0 | 0.0 | 0.00 | 0.00 | 0.00 | 79 | 1021.6 |
| 20260509074306 | 56 | 33 | 1.0 | 2.0 | 0.00 | 0.00 | 0.00 | 78 | 1021.6 |
| 20260509073805 | 56 | 33 | 0.0 | 1.0 | 0.00 | 0.00 | 0.00 | 77 | 1021.7 |
| 20260509073305 | 56 | 34 | 0.0 | 2.0 | 0.00 | 0.00 | 0.00 | 77 | 1021.6 |
| 20260509072805 | 57 | 33 | 1.0 | 2.0 | 0.00 | 0.00 | 0.00 | 77 | 1021.6 |
| 20260509072306 | 57 | 33 | 1.0 | 3.0 | 0.00 | 0.00 | 0.00 | 76 | 1021.6 |
| 20260509071806 | 57 | 31 | 0.0 | 1.0 | 0.00 | 0.00 | 0.00 | 76 | 1021.6 |
| 20260509071305 | 57 | 32 | 1.0 | 2.0 | 0.00 | 0.00 | 0.00 | 76 | 1021.5 |
| 20260509070824 | 57 | 32 | 1.0 | 2.0 | 0.00 | 0.00 | 0.00 | 75 | 1021.6 |
| 20260509070306 | 57 | 31 | 1.0 | 3.0 | 0.00 | 0.00 | 0.00 | 75 | 1021.5 |
| 20260509065306 | 58 | 355 | 2.0 | 5.0 | 0.00 | 0.00 | 0.00 | 75 | 1021.6 |
| 20260509064805 | 58 | 5 | 1.0 | 3.0 | 0.00 | 0.00 | 0.00 | 74 | 1021.6 |
| 20260509064305 | 58 | 5 | 2.0 | 3.0 | 0.00 | 0.00 | 0.00 | 74 | 1021.6 |
| 20260509063305 | 58 | 34 | 1.0 | 3.0 | 0.00 | 0.00 | 0.00 | 74 | 1021.5 |
| 20260509062805 | 58 | 5 | 2.0 | 3.0 | 0.00 | 0.00 | 0.00 | 73 | 1021.5 |
| 20260509062306 | 58 | 11 | 2.0 | 5.0 | 0.00 | 0.00 | 0.00 | 73 | 1021.4 |
| 20260509061805 | 59 | 17 | 0.0 | 1.0 | 0.00 | 0.00 | 0.00 | 73 | 1021.5 |
| 20260509060806 | 59 | 17 | 0.0 | 1.0 | 0.00 | 0.00 | 0.00 | 72 | 1021.4 |
| 20260509060305 | 59 | 17 | 1.0 | 2.0 | 0.00 | 0.00 | 0.00 | 72 | 1021.4 |
| 20260509055805 | 59 | 17 | 1.0 | 3.0 | 0.00 | 0.00 | 0.00 | 72 | 1021.4 |
| 20260509055306 | 59 | 17 | 1.0 | 3.0 | 0.00 | 0.00 | 0.00 | 72 | 1021.4 |
| 20260509054805 | 59 | 17 | 1.0 | 3.0 | 0.00 | 0.00 | 0.00 | 72 | 1021.4 |
| 20260509054306 | 60 | 17 | 1.0 | 2.0 | 0.00 | 0.00 | 0.00 | 71 | 1021.4 |
| 20260509053805 | 60 | 17 | 1.0 | 3.0 | 0.00 | 0.00 | 0.00 | 70 | 1021.4 |
| 20260509053305 | 60 | 19 | 1.0 | 5.0 | 0.00 | 0.00 | 0.00 | 70 | 1021.3 |
| 20260509052804 | 60 | 51 | 1.0 | 3.0 | 0.00 | 0.00 | 0.00 | 70 | 1021.3 |
| 20260509052307 | 60 | 43 | 1.0 | 3.0 | 0.00 | 0.00 | 0.00 | 69 | 1021.2 |
| 20260509051805 | 61 | 51 | 1.0 | 3.0 | 0.00 | 0.00 | 0.00 | 68 | 1021.2 |
| 20260509051305 | 61 | 49 | 2.0 | 5.0 | 0.00 | 0.00 | 0.00 | 68 | 1021.2 |
| 20260509050805 | 61 | 64 | 1.0 | 3.0 | 0.00 | 0.00 | 0.00 | 67 | 1021.2 |
| 20260509050304 | 61 | 76 | 1.0 | 2.0 | 0.00 | 0.00 | 0.00 | 66 | 1021.1 |
| 20260509044804 | 62 | 341 | 1.0 | 2.0 | 0.00 | 0.00 | 0.00 | 64 | 1021.0 |
| 20260509044305 | 63 | 340 | 2.0 | 3.0 | 0.00 | 0.00 | 0.00 | 63 | 1021.0 |
| 20260509043805 | 63 | 340 | 1.0 | 3.0 | 0.00 | 0.00 | 0.00 | 62 | 1020.9 |
| 20260509043306 | 63 | 344 | 2.0 | 3.0 | 0.00 | 0.00 | 0.00 | 62 | 1020.9 |
| 20260509042805 | 63 | 4 | 2.0 | 3.0 | 0.00 | 0.00 | 0.00 | 62 | 1020.8 |
| 20260509042307 | 63 | 15 | 2.0 | 3.0 | 0.00 | 0.00 | 0.00 | 61 | 1020.8 |
| 20260509041805 | 63 | 354 | 2.0 | 3.0 | 0.00 | 0.00 | 0.00 | 61 | 1020.7 |
| 20260509041304 | 64 | 46 | 2.0 | 5.0 | 0.00 | 0.00 | 0.00 | 60 | 1020.7 |
| 20260509040804 | 64 | 34 | 3.0 | 6.0 | 0.00 | 0.00 | 0.00 | 59 | 1020.7 |
| 20260509035306 | 65 | 36 | 1.0 | 3.0 | 0.00 | 0.00 | 0.00 | 58 | 1020.6 |
| 20260509034805 | 65 | 39 | 1.0 | 3.0 | 0.00 | 0.00 | 0.00 | 58 | 1020.5 |
| 20260509034304 | 65 | 40 | 2.0 | 3.0 | 0.00 | 0.00 | 0.00 | 57 | 1020.5 |
| 20260509033804 | 65 | 16 | 2.0 | 3.0 | 0.00 | 0.00 | 0.00 | 57 | 1020.4 |
| 20260509032804 | 66 | 34 | 2.0 | 3.0 | 0.00 | 0.00 | 0.00 | 57 | 1020.3 |
| 20260509032306 | 66 | 274 | 1.0 | 3.0 | 0.00 | 0.00 | 0.00 | 57 | 1020.2 |
| 20260509031805 | 66 | 229 | 1.0 | 3.0 | 0.00 | 0.00 | 0.00 | 56 | 1020.2 |
| 20260509031304 | 66 | 242 | 2.0 | 3.0 | 0.00 | 0.00 | 0.00 | 56 | 1020.2 |
| 20260509030304 | 66 | 253 | 2.0 | 7.0 | 0.00 | 0.00 | 0.00 | 55 | 1020.1 |
| 20260509025805 | 66 | 256 | 2.0 | 6.0 | 0.00 | 0.00 | 0.00 | 55 | 1020.1 |
| 20260509025307 | 67 | 298 | 2.0 | 3.0 | 0.00 | 0.00 | 0.00 | 55 | 1020.1 |
| 20260509024807 | 66 | 284 | 1.0 | 3.0 | 0.00 | 0.00 | 0.00 | 55 | 1020.1 |
| 20260509024308 | 66 | 286 | 3.0 | 8.0 | 0.00 | 0.00 | 0.00 | 55 | 1020.1 |
| 20260509023807 | 67 | 260 | 2.0 | 3.0 | 0.00 | 0.00 | 0.00 | 55 | 1020.0 |
| 20260509023307 | 67 | 258 | 2.0 | 3.0 | 0.00 | 0.00 | 0.00 | 55 | 1020.0 |
| 20260509022807 | 67 | 270 | 3.0 | 6.0 | 0.00 | 0.00 | 0.00 | 53 | 1020.0 |
| 20260509022307 | 67 | 304 | 2.0 | 6.0 | 0.00 | 0.00 | 0.00 | 53 | 1019.9 |
| 20260509021807 | 68 | 310 | 2.0 | 3.0 | 0.00 | 0.00 | 0.00 | 53 | 1019.9 |
| 20260509021307 | 68 | 260 | 2.0 | 3.0 | 0.00 | 0.00 | 0.00 | 53 | 1020.0 |
| 20260509020807 | 67 | 249 | 1.0 | 3.0 | 0.00 | 0.00 | 0.00 | 53 | 1020.0 |
| 20260509020307 | 67 | 312 | 2.0 | 3.0 | 0.00 | 0.00 | 0.00 | 53 | 1020.0 |
| 20260509015807 | 68 | 296 | 3.0 | 7.0 | 0.00 | 0.00 | 0.00 | 53 | 1020.0 |
| 20260509015307 | 68 | 274 | 3.0 | 6.0 | 0.00 | 0.00 | 0.00 | 52 | 1020.0 |
| 20260509014307 | 67 | 221 | 2.0 | 7.0 | 0.00 | 0.00 | 0.00 | 53 | 1020.0 |
| 20260509013807 | 67 | 266 | 3.0 | 7.0 | 0.00 | 0.00 | 0.00 | 53 | 1020.0 |
| 20260509013307 | 68 | 236 | 4.0 | 9.0 | 0.00 | 0.00 | 0.00 | 52 | 1020.1 |
| 20260509012807 | 68 | 217 | 3.0 | 7.0 | 0.00 | 0.00 | 0.00 | 52 | 1020.0 |
| 20260509012307 | 68 | 258 | 1.0 | 9.0 | 0.00 | 0.00 | 0.00 | 53 | 1020.0 |
| 20260509011806 | 68 | 266 | 3.0 | 7.0 | 0.00 | 0.00 | 0.00 | 53 | 1020.2 |
| 20260509010807 | 68 | 223 | 4.0 | 9.0 | 0.00 | 0.00 | 0.00 | 52 | 1020.2 |
| 20260509010307 | 68 | 247 | 3.0 | 7.0 | 0.00 | 0.00 | 0.00 | 52 | 1020.2 |
| 20260509005807 | 68 | 252 | 3.0 | 8.0 | 0.00 | 0.00 | 0.00 | 52 | 1020.2 |
| 20260509005307 | 68 | 222 | 4.0 | 9.0 | 0.00 | 0.00 | 0.00 | 52 | 1020.1 |
| 20260509004806 | 68 | 246 | 4.0 | 10.0 | 0.00 | 0.00 | 0.00 | 51 | 1020.2 |
| 20260509004306 | 67 | 188 | 3.0 | 8.0 | 0.00 | 0.00 | 0.00 | 52 | 1020.2 |
| 20260509003808 | 68 | 230 | 3.0 | 7.0 | 0.00 | 0.00 | 0.00 | 52 | 1020.2 |
| 20260509002807 | 68 | 288 | 5.0 | 9.0 | 0.00 | 0.00 | 0.00 | 52 | 1020.2 |
| 20260509002307 | 68 | 299 | 5.0 | 8.0 | 0.00 | 0.00 | 0.00 | 51 | 1020.2 |
| 20260509001807 | 68 | 240 | 3.0 | 7.0 | 0.00 | 0.00 | 0.00 | 51 | 1020.2 |
| 20260509001307 | 68 | 229 | 3.0 | 8.0 | 0.00 | 0.00 | 0.00 | 51 | 1020.2 |
| 20260509000806 | 68 | 331 | 1.0 | 5.0 | 0.00 | 0.00 | 0.00 | 53 | 1020.2 |
| 20260509000307 | 68 | 304 | 2.0 | 8.0 | 0.00 | 0.00 | 0.00 | 52 | 1020.2 |
| 20260508235807 | 68 | 319 | 2.0 | 9.0 | 0.00 | 0.00 | 0.00 | 53 | 1020.3 |
| 20260508235307 | 67 | 181 | 5.0 | 9.0 | 0.00 | 0.00 | 0.00 | 52 | 1020.3 |
| 20260508234306 | 68 | 277 | 1.0 | 8.0 | 0.00 | 0.00 | 0.00 | 52 | 1020.2 |
| 20260508233807 | 68 | 197 | 2.0 | 8.0 | 0.00 | 0.00 | 0.00 | 52 | 1020.3 |
| 20260508233307 | 68 | 219 | 2.0 | 6.0 | 0.00 | 0.00 | 0.00 | 51 | 1020.4 |
| 20260508232307 | 67 | 309 | 3.0 | 6.0 | 0.00 | 0.00 | 0.00 | 52 | 1020.4 |
| 20260508231807 | 67 | 146 | 2.0 | 3.0 | 0.00 | 0.00 | 0.00 | 51 | 1020.4 |
| 20260508231307 | 67 | 163 | 3.0 | 5.0 | 0.00 | 0.00 | 0.00 | 53 | 1020.5 |
| 20260508230807 | 67 | 270 | 3.0 | 7.0 | 0.00 | 0.00 | 0.00 | 52 | 1020.6 |
| 20260508225307 | 67 | 285 | 6.0 | 9.0 | 0.00 | 0.00 | 0.00 | 50 | 1020.5 |
| 20260508224806 | 68 | 246 | 3.0 | 9.0 | 0.00 | 0.00 | 0.00 | 51 | 1020.5 |
| 20260508224307 | 67 | 91 | 2.0 | 5.0 | 0.00 | 0.00 | 0.00 | 51 | 1020.4 |
| 20260508223807 | 67 | 180 | 1.0 | 5.0 | 0.00 | 0.00 | 0.00 | 51 | 1020.5 |
| 20260508222307 | 65 | 247 | 2.0 | 9.0 | 0.00 | 0.00 | 0.00 | 54 | 1020.7 |
| 20260508221806 | 65 | 270 | 3.0 | 8.0 | 0.00 | 0.00 | 0.00 | 53 | 1020.7 |
| 20260508221306 | 66 | 288 | 2.0 | 8.0 | 0.00 | 0.00 | 0.00 | 52 | 1020.8 |
| 20260508220806 | 66 | 257 | 5.0 | 10.0 | 0.00 | 0.00 | 0.00 | 54 | 1020.8 |
| 20260508220307 | 65 | 3 | 3.0 | 8.0 | 0.00 | 0.00 | 0.00 | 54 | 1020.9 |
| 20260508215806 | 65 | 181 | 2.0 | 6.0 | 0.00 | 0.00 | 0.00 | 55 | 1020.8 |
| 20260508214807 | 64 | 189 | 6.0 | 12.0 | 0.00 | 0.00 | 0.00 | 55 | 1020.9 |
| 20260508214307 | 65 | 172 | 3.0 | 9.0 | 0.00 | 0.00 | 0.00 | 55 | 1020.8 |
| 20260508213307 | 64 | 195 | 4.0 | 10.0 | 0.00 | 0.00 | 0.00 | 56 | 1020.8 |
| 20260508212806 | 63 | 135 | 7.0 | 12.0 | 0.00 | 0.00 | 0.00 | 55 | 1020.8 |
| 20260508211806 | 62 | 274 | 3.0 | 7.0 | 0.00 | 0.00 | 0.00 | 57 | 1020.8 |
| 20260508211307 | 63 | 143 | 5.0 | 12.0 | 0.00 | 0.00 | 0.00 | 56 | 1020.9 |
| 20260508210806 | 63 | 170 | 6.0 | 12.0 | 0.00 | 0.00 | 0.00 | 57 | 1020.9 |
| 20260508210307 | 64 | 239 | 4.0 | 8.0 | 0.00 | 0.00 | 0.00 | 55 | 1020.8 |
| 20260508205807 | 63 | 235 | 1.0 | 3.0 | 0.00 | 0.00 | 0.00 | 58 | 1020.7 |
| 20260508205307 | 63 | 326 | 3.0 | 9.0 | 0.00 | 0.00 | 0.00 | 58 | 1020.7 |
| 20260508204807 | 63 | 201 | 3.0 | 9.0 | 0.00 | 0.00 | 0.00 | 58 | 1020.8 |
| 20260508204307 | 62 | 249 | 5.0 | 10.0 | 0.00 | 0.00 | 0.00 | 59 | 1020.8 |
| 20260508203806 | 61 | 343 | 3.0 | 7.0 | 0.00 | 0.00 | 0.00 | 60 | 1020.8 |
| 20260508203307 | 61 | 235 | 3.0 | 12.0 | 0.00 | 0.00 | 0.00 | 59 | 1020.8 |
| 20260508202807 | 62 | 192 | 6.0 | 13.0 | 0.00 | 0.00 | 0.00 | 58 | 1020.9 |
| 20260508202307 | 61 | 207 | 3.0 | 10.0 | 0.00 | 0.00 | 0.00 | 59 | 1020.9 |
| 20260508201806 | 61 | 128 | 4.0 | 13.0 | 0.00 | 0.00 | 0.00 | 59 | 1021.0 |
| 20260508200806 | 62 | 290 | 1.0 | 5.0 | 0.00 | 0.00 | 0.00 | 58 | 1021.0 |
| 20260508195807 | 62 | 199 | 4.0 | 13.0 | 0.00 | 0.00 | 0.00 | 60 | 1021.2 |
| 20260508195306 | 60 | 170 | 5.0 | 14.0 | 0.00 | 0.00 | 0.00 | 61 | 1021.1 |
| 20260508194807 | 60 | 128 | 5.0 | 10.0 | 0.00 | 0.00 | 0.00 | 61 | 1021.1 |
| 20260508194306 | 60 | 288 | 2.0 | 10.0 | 0.00 | 0.00 | 0.00 | 59 | 1021.2 |
| 20260508193806 | 61 | 197 | 1.0 | 3.0 | 0.00 | 0.00 | 0.00 | 61 | 1021.3 |
| 20260508192806 | 61 | 162 | 7.0 | 13.0 | 0.00 | 0.00 | 0.00 | 60 | 1021.2 |
| 20260508191306 | 59 | 144 | 5.0 | 13.0 | 0.00 | 0.00 | 0.00 | 63 | 1021.2 |
| 20260508190806 | 59 | 150 | 4.0 | 10.0 | 0.00 | 0.00 | 0.00 | 63 | 1021.2 |
| 20260508190307 | 59 | 165 | 3.0 | 9.0 | 0.00 | 0.00 | 0.00 | 62 | 1021.3 |
| 20260508185806 | 59 | 189 | 5.0 | 12.0 | 0.00 | 0.00 | 0.00 | 62 | 1021.4 |
| 20260508184807 | 59 | 175 | 6.0 | 9.0 | 0.00 | 0.00 | 0.00 | 62 | 1021.4 |
| 20260508184306 | 59 | 207 | 5.0 | 8.0 | 0.00 | 0.00 | 0.00 | 62 | 1021.4 |
| 20260508183807 | 58 | 285 | 2.0 | 12.0 | 0.00 | 0.00 | 0.00 | 64 | 1021.4 |
| 20260508183307 | 59 | 212 | 4.0 | 10.0 | 0.00 | 0.00 | 0.00 | 63 | 1021.5 |
| 20260508182806 | 58 | 210 | 3.0 | 10.0 | 0.00 | 0.00 | 0.00 | 61 | 1021.5 |
| 20260508182307 | 58 | 213 | 3.0 | 12.0 | 0.00 | 0.00 | 0.00 | 62 | 1021.5 |
| 20260508181806 | 58 | 207 | 4.0 | 10.0 | 0.00 | 0.00 | 0.00 | 64 | 1021.5 |
| 20260508181306 | 58 | 161 | 5.0 | 12.0 | 0.00 | 0.00 | 0.00 | 62 | 1021.3 |
| 20260508180807 | 57 | 238 | 5.0 | 12.0 | 0.00 | 0.00 | 0.00 | 65 | 1021.2 |
| 20260508180306 | 57 | 223 | 3.0 | 7.0 | 0.00 | 0.00 | 0.00 | 67 | 1021.1 |
| 20260508175806 | 56 | 248 | 4.0 | 10.0 | 0.00 | 0.00 | 0.00 | 69 | 1021.1 |
| 20260508175306 | 55 | 263 | 3.0 | 7.0 | 0.00 | 0.00 | 0.00 | 69 | 1021.1 |
| 20260508174807 | 56 | 221 | 3.0 | 9.0 | 0.00 | 0.00 | 0.00 | 70 | 1021.0 |
| 20260508173807 | 56 | 229 | 2.0 | 10.0 | 0.00 | 0.00 | 0.00 | 70 | 1021.0 |
| 20260508172806 | 55 | 259 | 2.0 | 8.0 | 0.00 | 0.00 | 0.00 | 71 | 1020.9 |
| 20260508172307 | 56 | 264 | 5.0 | 9.0 | 0.00 | 0.00 | 0.00 | 70 | 1020.9 |
| 20260508171806 | 56 | 223 | 6.0 | 10.0 | 0.00 | 0.00 | 0.00 | 69 | 1020.8 |
| 20260508171306 | 56 | 219 | 2.0 | 5.0 | 0.00 | 0.00 | 0.00 | 72 | 1020.7 |
| 20260508170806 | 55 | 203 | 2.0 | 9.0 | 0.00 | 0.00 | 0.00 | 71 | 1020.6 |
| 20260508170306 | 55 | 223 | 2.0 | 8.0 | 0.00 | 0.00 | 0.00 | 71 | 1020.6 |
| 20260508165805 | 56 | 199 | 2.0 | 7.0 | 0.00 | 0.00 | 0.00 | 73 | 1020.5 |
| 20260508164806 | 55 | 161 | 3.0 | 9.0 | 0.00 | 0.00 | 0.00 | 75 | 1020.4 |
| 20260508164307 | 54 | 152 | 4.0 | 9.0 | 0.00 | 0.00 | 0.00 | 75 | 1020.5 |
| 20260508163306 | 54 | 193 | 4.0 | 7.0 | 0.00 | 0.00 | 0.00 | 75 | 1020.2 |
| 20260508162806 | 54 | 215 | 2.0 | 5.0 | 0.00 | 0.00 | 0.00 | 77 | 1020.1 |
| 20260508162307 | 53 | 164 | 4.0 | 9.0 | 0.00 | 0.00 | 0.00 | 77 | 1020.2 |
| 20260508161805 | 53 | 192 | 3.0 | 9.0 | 0.00 | 0.00 | 0.00 | 76 | 1020.2 |
| 20260508161306 | 54 | 191 | 2.0 | 9.0 | 0.00 | 0.00 | 0.00 | 74 | 1020.1 |
| 20260508160806 | 54 | 209 | 3.0 | 7.0 | 0.00 | 0.00 | 0.00 | 74 | 1020.3 |
| 20260508160306 | 53 | 192 | 2.0 | 8.0 | 0.00 | 0.00 | 0.00 | 75 | 1020.2 |
| 20260508155806 | 53 | 199 | 5.0 | 10.0 | 0.00 | 0.00 | 0.00 | 74 | 1020.0 |
| 20260508154306 | 53 | 170 | 3.0 | 9.0 | 0.00 | 0.00 | 0.00 | 75 | 1020.1 |
| 20260508153806 | 52 | 184 | 5.0 | 14.0 | 0.00 | 0.00 | 0.00 | 76 | 1020.1 |
| 20260508152306 | 52 | 139 | 3.0 | 9.0 | 0.00 | 0.00 | 0.00 | 79 | 1020.0 |
| 20260508151806 | 52 | 132 | 4.0 | 8.0 | 0.00 | 0.00 | 0.00 | 79 | 1019.9 |
| 20260508151306 | 52 | 153 | 1.0 | 8.0 | 0.00 | 0.00 | 0.00 | 79 | 1020.1 |
| 20260508150806 | 52 | 141 | 7.0 | 9.0 | 0.00 | 0.00 | 0.00 | 78 | 1020.1 |
| 20260508150306 | 51 | 187 | 5.0 | 9.0 | 0.00 | 0.00 | 0.00 | 79 | 1020.2 |
| 20260508145806 | 51 | 131 | 2.0 | 7.0 | 0.00 | 0.00 | 0.00 | 80 | 1020.2 |